User: anonymous
Location: Albany
(35.0000°S, 118.0000°E)
Time: 04:04:17
(UTC-04:00)
Language:

ERS-1 Rocket - Orbit

View from above orbital plane
View from above orbital plane
View from above satellite
View from above satellite

Ground track
Ground track

The orbit data is extracted from the following two-line orbital elements,

1 21610U 91050F   14203.13301686  .00000144  00000-0  60200-4 0  5484
2 21610 098.7406 228.6079 0002785 205.6186 195.4452 14.40298650207345
Epoch (UTC): 22 July 2014 03:11:32
Eccentricity: 0.0002785
inclination: 98.7406°
perigee height: 755 km
apogee height: 759 km
right ascension of ascending node: 228.6079°
argument of perigee: 205.6186°
revolutions per day: 14.40298650
mean anomaly at epoch: 195.4452°
orbit number at epoch: 20734

The dashed part of the orbit path shows where the satellite is in the earth's shadow,  

DLR